Weather History for Huron, SD

Change the Weather History Date:

Tuesday, February 11, 2014

  Actual Average Record
Temperature  
Mean Temperature 16 °F 20 °F  
Max Temperature 29 °F 31 °F 64 °F (1987)
Min Temperature 3 °F 10 °F -36 °F (1899)
Degree Days  
Heating Degree Days 49 45  
Month to date heating degree days 644 506  
Since 1 July heating degree days 5521 5123  
Cooling Degree Days 0 0  
Month to date cooling degree days 0 0  
Year to date cooling degree days 0 0  
Moisture  
Dew Point 12 °F    
Average Humidity 74    
Maximum Humidity 81    
Minimum Humidity 67    
Precipitation  
Precipitation T in 0.02 in 0.38 in (1992)
Month to date precipitation 0.05 0.21  
Year to date precipitation 0.20 0.71  
Snow  
Snow T in 0.20 in 6.50 in (1992)
Month to date snowfall 0.5 2.7  
Since 1 July snowfall 16.5 26.3  
Snow Depth 1.00 in    
Sea Level Pressure  
Sea Level Pressure 30.09 in    
Wind  
Wind Speed 13 mph (South)    
Max Wind Speed 25 mph    
Max Gust Speed 33 mph    
Visibility 9 miles    
Events      
T = Trace of Precipitation, MM = Missing Value Source: NWS Daily Summary

Daily Weather History Graph

Daily Weather History Graph

Search for Another Location

Airport:

Trip Planner

Search our weather history database for the weather conditions in past years. The results will help you decide how hot, cold, wet, or windy it might be!

Date:

Astronomy

Feb. 11, 2014 Rise Set
Actual Time 7:38 AM CST 5:56 PM CST
Civil Twilight 7:08 AM CST 6:26 PM CST
Nautical Twilight 6:34 AM CST 7:00 PM CST
Astronomical Twilight 6:00 AM CST 7:34 PM CST
Moon 3:15 PM CST (2/11) 5:19 AM CST (2/11)
Length of Visible Light 11h 18m
Length of Day
10h 18m
Waxing Gibbous, 91% of the Moon is Illuminated
Feb 11
Waxing Gibbous
Feb 14
Full
Feb 22
Last Quarter
Mar 1
New
Mar 8
First Quarter

Hourly Weather History & Observations

Time (CST) Temp. Windchill Dew Point Humidity Pressure Visibility Wind Dir Wind Speed Gust Speed Precip Events Conditions
12:55 AM 3.9 °F -9.4 °F -2.0 °F 76% 30.41 in 10.0 mi SSE 8.1 mph - N/A   Overcast
1:55 AM 7.0 °F -6.6 °F -0.0 °F 73% 30.38 in 10.0 mi SSE 9.2 mph - N/A   Overcast
2:55 AM 8.1 °F -6.2 °F 1.0 °F 73% 30.35 in 10.0 mi SSE 10.4 mph - N/A   Overcast
3:55 AM 9.0 °F -5.9 °F 1.9 °F 73% 30.32 in 10.0 mi SSE 11.5 mph - N/A   Overcast
4:55 AM 8.1 °F -7.0 °F 1.9 °F 76% 30.30 in 10.0 mi SSE 11.5 mph 19.6 mph N/A   Clear
5:55 AM 8.1 °F -6.2 °F 1.9 °F 76% 30.28 in 10.0 mi SSE 10.4 mph - N/A   Clear
6:55 AM 9.0 °F -7.3 °F 3.0 °F 77% 30.24 in 10.0 mi SSE 13.8 mph - N/A   Clear
7:55 AM 9.0 °F -6.6 °F 3.9 °F 80% 30.22 in 9.0 mi South 12.7 mph 19.6 mph N/A   Clear
8:55 AM 10.9 °F -7.0 °F 5.0 °F 77% 30.18 in 9.0 mi South 18.4 mph 26.5 mph N/A   Clear
9:55 AM 15.1 °F -0.6 °F 7.0 °F 70% 30.16 in 9.0 mi South 16.1 mph 28.8 mph N/A   Clear
10:55 AM 19.0 °F 2.0 °F 10.0 °F 68% 30.12 in 9.0 mi South 23.0 mph 31.1 mph N/A   Clear
11:55 AM 21.9 °F 6.9 °F 12.9 °F 68% 30.08 in 9.0 mi South 19.6 mph 29.9 mph N/A   Clear
12:55 PM 24.1 °F 8.7 °F 15.1 °F 69% 30.02 in 8.0 mi South 23.0 mph 32.2 mph N/A   Mostly Cloudy
1:55 PM 26.1 °F 12.3 °F 17.1 °F 69% 29.97 in 9.0 mi South 19.6 mph 28.8 mph N/A   Overcast
2:55 PM 28.0 °F 15.7 °F 19.0 °F 69% 29.94 in 9.0 mi South 17.3 mph 29.9 mph N/A   Scattered Clouds
3:55 PM 28.9 °F 17.7 °F 19.9 °F 69% 29.94 in 9.0 mi South 15.0 mph 25.3 mph N/A   Scattered Clouds
4:55 PM 28.9 °F 18.6 °F 21.0 °F 72% 29.92 in 10.0 mi South 12.7 mph 20.7 mph N/A   Scattered Clouds
5:55 PM 28.9 °F 18.2 °F 21.0 °F 72% 29.91 in 9.0 mi South 13.8 mph 19.6 mph N/A   Overcast
6:55 PM 28.9 °F 19.2 °F 21.0 °F 72% 29.92 in 9.0 mi South 11.5 mph - N/A   Overcast
7:55 PM 28.0 °F 18.1 °F 21.0 °F 75% 29.91 in 9.0 mi South 11.5 mph - N/A   Scattered Clouds
8:55 PM 27.0 °F 18.0 °F 19.9 °F 75% 29.91 in 9.0 mi South 9.2 mph - N/A   Clear
9:55 PM 27.0 °F - 21.0 °F 78% 29.94 in 9.0 mi Calm Calm - N/A   Overcast
10:55 PM 25.0 °F 20.7 °F 19.9 °F 81% 29.96 in 8.0 mi Variable 3.5 mph - N/A   Mostly Cloudy
11:55 PM 24.1 °F 18.2 °F 19.9 °F 84% 29.99 in 7.0 mi North 4.6 mph - 0.00 in   Overcast